Location: Roanoke
(37.2710°N, 79.9420°W)
Time: 06:33:27
(UTC-04:00)

Cosmos 1441 Rocket - Visible Passes

Search period start: 25 July 2014 00:00
Search period end: 04 August 2014 00:00
Orbit: 510 x 557 km, 81.1° (Epoch: 23 July)

Date Brightness Start Highest point End Pass type
(mag) Time Alt. Az. Time Alt. Az. Time Alt. Az.
25 Jul 5.7 02:05:38 21° NNE 02:05:38 21° NNE 02:07:07 10° NNE visible
26 Jul 5.9 01:56:23 19° NNE 01:56:23 19° NNE 01:57:41 10° NNE visible
27 Jul 6.0 01:47:07 18° NNE 01:47:07 18° NNE 01:48:16 10° NNE visible
28 Jul 6.1 01:37:50 17° NNE 01:37:50 17° NNE 01:38:50 10° NNE visible
29 Jul 6.1 01:28:32 16° NNE 01:28:32 16° NNE 01:29:23 10° NNE visible
30 Jul 6.2 01:19:14 15° NNE 01:19:14 15° NNE 01:19:57 10° NNE visible
31 Jul 6.3 01:09:55 14° NNE 01:09:55 14° NNE 01:10:30 10° NNE visible
01 Aug 6.3 01:00:35 13° NNE 01:00:35 13° NNE 01:01:04 10° NNE visible
02 Aug 6.3 00:51:14 12° NNE 00:51:14 12° NNE 00:51:37 10° NNE visible
03 Aug 6.4 00:41:52 12° NNE 00:41:52 12° NNE 00:42:09 10° NNE visible
